Retour au catalogue

YAOGAN-39 04C

ActifMilitaireVLEO
NORAD 58145·PAYLOAD·🇨🇳 China

Lancé Oct 23, 2023 depuis Xichang Satellite Launch Center

Loading…

Prochains Passages (prochaines 24 heures)

TLE

FraisSource: Space-Track

Époque: Sep 14, 2026, 05:41 UTC

1 58145U 23163E   26257.23747609  .00003873  00000-0  19514-3 0  9992
2 58145  34.9904 173.7604 0002288 259.4216 100.6239 15.16642825160852

Suivez YAOGAN-39 04C en temps réel avec AllMySat

Download on the App Store